EW9543 Weather Reports


time (UTC)temp
F
wind
direction
speed
knots
gust
knots
rain 1hr
in
rain 24hr
in
rain mn
in
humidity
%
barometer
mb
20260505194554 62 255 0.0 0.0 0.00 0.00 0.00 74 1014.3
20260505193050 61 196 0.0 0.0 0.00 0.00 0.00 74 1014.4
20260505191545 61 202 0.0 0.0 0.00 0.00 0.00 74 1014.4
20260505190045 62 186 0.0 0.0 0.00 0.00 0.00 74 1014.4
20260505184541 62 207 0.0 0.0 0.00 0.00 0.00 74 1014.4
20260505183041 60 182 0.0 0.0 0.00 0.00 0.00 75 1014.4
20260505181540 61 180 0.0 0.0 0.00 0.00 0.00 77 1014.4
20260505180056 59 202 0.0 0.0 0.00 0.00 0.00 77 1014.3
20260505174548 58 213 0.0 0.0 0.00 0.00 0.00 80 1014.3
20260505173033 58 222 0.0 0.0 0.00 0.00 0.00 79 1014.2
20260505171526 58 215 0.0 0.0 0.00 0.00 0.00 81 1014.0
20260505170023 57 45 0.0 0.0 0.00 0.00 0.00 84 1014.2
20260505164619 55 232 0.0 0.0 0.00 0.00 0.00 86 1014.2
20260505163049 55 236 0.0 0.0 0.00 0.00 0.00 87 1014.2
20260505161543 54 252 0.0 0.0 0.00 0.00 0.00 88 1014.0
20260505153034 53 243 0.0 0.0 0.00 0.00 0.00 90 1013.7
20260505151533 53 244 0.0 0.0 0.00 0.00 0.00 91 1013.5
20260505124522 51 250 0.0 0.0 0.00 0.00 0.00 91 1012.7
20260505123059 51 249 0.0 0.0 0.00 0.00 0.00 91 1012.7
20260505121544 51 251 0.0 0.0 0.00 0.00 0.00 91 1012.6
20260505120032 51 240 0.0 0.0 0.00 0.00 0.00 91 1012.6
20260505114525 51 272 0.0 0.0 0.00 0.00 0.00 91 1012.6
20260505113023 51 281 0.0 0.0 0.00 0.00 0.00 91 1012.5
20260505111516 51 245 0.0 0.0 0.00 0.00 0.00 90 1012.5
20260505101503 51 236 0.0 0.0 0.00 0.00 0.00 91 1012.9
20260505100100 51 214 0.0 0.0 0.00 0.00 0.00 91 1013.0
20260505094555 51 213 0.0 0.0 0.00 0.00 0.00 91 1012.7
20260505093053 51 213 0.0 0.0 0.00 0.00 0.00 91 1013.0
20260505091605 51 247 0.0 0.0 0.00 0.00 0.00 91 1012.6
20260505090051 51 247 0.0 0.0 0.00 0.00 0.00 91 1013.0
20260505084547 51 240 0.0 0.0 0.00 0.00 0.00 91 1013.2
20260505083042 51 240 0.0 0.0 0.00 0.00 0.00 90 1013.5
20260505081540 51 238 0.0 0.0 0.00 0.00 0.00 90 1013.3
20260505080003 51 256 0.0 0.0 0.00 0.00 0.00 90 1013.4
20260505074607 51 236 0.0 0.0 0.00 0.00 0.00 90 1013.6
20260505073057 51 235 0.0 0.0 0.00 0.00 0.00 90 1013.6
20260505071604 51 217 0.0 0.0 0.00 0.00 0.00 90 1013.6
20260505070058 51 118 0.0 0.0 0.00 0.00 0.00 90 1013.4
20260505064554 51 268 0.0 0.0 0.00 0.00 0.00 90 1013.6
20260505063110 51 279 0.0 0.0 0.00 0.00 0.00 90 1013.7
20260505061618 51 269 0.0 0.0 0.00 0.00 0.00 90 1013.8
20260505060100 51 245 0.0 0.0 0.00 0.00 0.00 90 1013.6
20260505054551 51 261 0.0 0.0 0.00 0.00 0.00 90 1013.9
20260505053047 51 245 0.0 0.0 0.00 0.00 0.00 90 1013.8
20260505051608 51 219 0.0 0.0 0.00 0.00 0.00 90 1013.7
20260505041516 51 268 0.0 0.0 0.00 0.00 0.00 89 1013.9
20260505040047 51 268 0.0 0.0 0.00 0.00 0.00 89 1014.5
20260505034544 51 268 0.0 0.0 0.00 0.00 0.00 89 1014.3
20260505033044 51 265 0.0 0.0 0.00 0.00 0.00 89 1013.4
20260505031550 51 268 0.0 0.0 0.00 0.00 0.00 89 1012.9
20260505030039 52 232 0.0 0.0 0.00 0.00 0.00 89 1013.1
20260505024545 52 255 0.0 0.0 0.00 0.00 0.00 89 1013.2
20260505023037 52 248 0.0 0.0 0.00 0.00 0.00 88 1013.3
20260505021537 52 234 0.0 0.0 0.00 0.00 0.00 88 1013.4
20260505020036 52 250 0.0 0.0 0.00 0.00 0.00 88 1013.7
20260505014535 52 243 0.0 0.0 0.00 0.00 0.00 88 1013.6
20260505013030 52 265 0.0 0.0 0.00 0.00 0.00 87 1013.9
20260505011533 53 262 0.0 0.0 0.00 0.00 0.00 87 1014.1
20260505010030 53 263 0.0 0.0 0.00 0.00 0.00 87 1014.1
20260505004528 53 263 0.0 0.0 0.00 0.00 0.00 86 1014.0
20260505003027 53 264 0.0 0.0 0.00 0.00 0.00 86 1013.9
20260505001524 53 264 0.0 0.0 0.00 0.00 0.00 85 1013.8
20260505000025 54 216 0.0 0.0 0.00 0.00 0.00 85 1013.9
20260505000023 54 215 0.0 0.0 0.00 0.00 0.00 85 1013.9
20260504234524 54 213 0.0 0.0 0.00 0.00 0.00 84 1013.7
20260504233023 54 208 0.0 0.0 0.00 0.00 0.00 83 1013.7
20260504231524 54 257 0.0 0.0 0.00 0.00 0.00 83 1013.6
20260504230020 55 171 0.0 0.0 0.00 0.00 0.00 82 1013.8
20260504224521 56 217 0.0 0.0 0.00 0.00 0.00 80 1013.6
20260504223018 56 166 0.0 0.0 0.00 0.00 0.00 76 1013.6
20260504221548 58 201 0.0 0.0 0.00 0.00 0.00 74 1013.9
20260504220048 59 181 0.0 0.0 0.00 0.00 0.00 72 1013.6
20260504214553 60 184 0.0 0.0 0.00 0.00 0.00 70 1013.4
20260504213045 61 182 0.0 3.5 0.00 0.00 0.00 67 1013.4
20260504211543 62 189 0.0 2.6 0.00 0.00 0.00 65 1013.6
20260504210049 62 175 0.0 0.0 0.00 0.00 0.00 66 1013.7
20260504204512 62 180 0.0 0.0 0.00 0.00 0.00 65 1013.6
20260504203020 64 171 0.0 0.0 0.00 0.00 0.00 64 1013.6
20260504201510 65 180 0.0 0.0 0.00 0.00 0.00 61 1013.5
20260504200010 66 161 0.0 0.0 0.00 0.00 0.00 62 1013.5